Weather History for Greenville, MS

Change the Weather History Date:

Monday, April 1, 2013

  Actual Average Record
Temperature  
Mean Temperature 59 °F 59 °F  
Max Temperature 73 °F 70 °F 90 °F (1966)
Min Temperature 44 °F 48 °F 29 °F (1924)
Degree Days  
Heating Degree Days 6 7  
Month to date heating degree days 6 7  
Since 1 July heating degree days 2484 2652  
Cooling Degree Days 0 1  
Month to date cooling degree days 0 1  
Year to date cooling degree days 12 23  
Growing Degree Days 8 (Base 50)    
Moisture  
Dew Point 50 °F    
Average Humidity 75    
Maximum Humidity 100    
Minimum Humidity 49    
Precipitation  
Precipitation 0.00 in 0.21 in 5.75 in (2000)
Month to date precipitation 0.00 0.21  
Year to date precipitation 17.21 14.75  
Sea Level Pressure  
Sea Level Pressure 30.04 in    
Wind  
Wind Speed 3 mph (North)    
Max Wind Speed 14 mph    
Max Gust Speed 17 mph    
Visibility 4 miles    
Events Fog    
T = Trace of Precipitation, MM = Missing Value Source: NWS Daily Summary

Daily Weather History Graph

Daily Weather History Graph

Search for Another Location

Airport:

Trip Planner

Search our weather history database for the weather conditions in past years. The results will help you decide how hot, cold, wet, or windy it might be!

Date:

Astronomy

Apr. 01, 2013 Rise Set
Actual Time 6:51 AM CDT 7:24 PM CDT
Civil Twilight 6:26 AM CDT 7:49 PM CDT
Nautical Twilight 5:56 AM CDT 8:19 PM CDT
Astronomical Twilight 5:26 AM CDT 8:49 PM CDT
Moon 12:20 AM CDT (4/1) 10:50 AM CDT (4/1)
Length of Visible Light 13h 23m
Length of Day
12h 33m
Waning Gibbous, 67% of the Moon is Illuminated
Apr 1
Waning Gibbous
Apr 2
Last Quarter
Apr 10
New
Apr 18
First Quarter
Apr 25
Full

Hourly Weather History & Observations

Time (CDT) Temp. Windchill Dew Point Humidity Pressure Visibility Wind Dir Wind Speed Gust Speed Precip Events Conditions
12:46 AM 53.6 °F - 53.6 °F 100% 29.96 in 1.5 mi Calm Calm - N/A   Clear
12:53 AM 52.0 °F - 52.0 °F 100% 29.98 in 0.2 mi Calm Calm - N/A Fog Fog
1:07 AM 51.8 °F - 51.8 °F 100% 29.96 in 0.2 mi Calm Calm - N/A Fog Fog
1:23 AM 50.0 °F - 50.0 °F 100% 29.96 in 0.2 mi Calm Calm - N/A Fog Fog
1:41 AM 48.2 °F - 48.2 °F 100% 29.96 in 0.2 mi Calm Calm - N/A Fog Fog
1:51 AM 48.2 °F - 46.4 °F 93% 29.96 in 0.2 mi Calm Calm - N/A Fog Fog
1:53 AM 48.0 °F - 48.0 °F 100% 29.99 in 0.2 mi Calm Calm - N/A Fog Fog
2:25 AM 48.2 °F - 48.2 °F 100% 29.96 in 0.2 mi NW 4.6 mph - N/A Fog Fog
2:49 AM 48.2 °F - 48.2 °F 100% 29.96 in 0.2 mi Calm Calm - N/A Fog Fog
2:53 AM 48.0 °F - 48.0 °F 100% 29.99 in 0.2 mi Calm Calm - N/A Fog Fog
3:53 AM 46.9 °F - 46.9 °F 100% 29.99 in 0.2 mi WNW 3.5 mph - N/A Fog Fog
4:53 AM 46.0 °F - 46.0 °F 100% 30.01 in 0.2 mi Calm Calm - N/A Fog Fog
5:28 AM 46.4 °F - 46.4 °F 100% 30.01 in 0.5 mi Calm Calm - N/A Fog Fog
5:43 AM 44.6 °F - 44.6 °F 100% 30.01 in 0.2 mi Calm Calm - N/A Fog Fog
5:53 AM 46.9 °F - 46.0 °F 97% 30.03 in 0.2 mi Calm Calm - N/A Fog Fog
6:20 AM 46.4 °F - 46.4 °F 100% 30.02 in 0.5 mi Calm Calm - N/A Fog Fog
6:34 AM 46.4 °F - 44.6 °F 93% 30.02 in 0.2 mi Calm Calm - N/A Fog Fog
6:53 AM 44.1 °F 41.5 °F 44.1 °F 100% 30.05 in 0.2 mi South 4.6 mph - N/A Fog Fog
7:37 AM 48.2 °F - 46.4 °F 93% 30.06 in 0.8 mi West 4.6 mph - N/A   Mist
7:53 AM 48.9 °F - 48.9 °F 100% 30.09 in 0.2 mi West 3.5 mph - N/A Fog Fog
8:53 AM 52.0 °F - 52.0 °F 100% 30.11 in 0.2 mi Calm Calm - N/A Fog Fog
9:06 AM 51.8 °F - 51.8 °F 100% 30.09 in 0.8 mi Calm Calm - N/A   Overcast
9:16 AM 53.6 °F - 53.6 °F 100% 30.09 in 2.0 mi Calm Calm - N/A   Overcast
9:24 AM 53.6 °F - 53.6 °F 100% 30.09 in 7.0 mi Calm Calm - N/A   Mostly Cloudy
9:37 AM 55.4 °F - 53.6 °F 94% 30.09 in 10.0 mi Calm Calm - N/A   Scattered Clouds
9:53 AM 57.2 °F - 53.6 °F 88% 30.09 in 10.0 mi Calm Calm - N/A   Clear
10:53 AM 63.0 °F - 51.1 °F 65% 30.13 in 10.0 mi Calm Calm - N/A   Clear
11:53 AM 66.0 °F - 53.1 °F 63% 30.13 in 10.0 mi Calm Calm - N/A   Clear
12:53 PM 68.0 °F - 52.0 °F 56% 30.12 in 10.0 mi Calm Calm - N/A   Clear
1:53 PM 70.0 °F - 53.1 °F 55% 30.09 in 10.0 mi Calm Calm - N/A   Partly Cloudy
2:53 PM 72.0 °F - 53.1 °F 51% 30.07 in 10.0 mi Variable 3.5 mph - N/A   Clear
3:53 PM 71.1 °F - 51.1 °F 49% 30.06 in 10.0 mi Calm Calm - N/A   Clear
4:53 PM 72.0 °F - 51.1 °F 48% 30.06 in 10.0 mi Calm Calm - N/A   Partly Cloudy
5:53 PM 73.0 °F - 54.0 °F 51% 30.06 in 10.0 mi North 5.8 mph - N/A   Scattered Clouds
6:53 PM 66.9 °F - 54.0 °F 63% 30.06 in 10.0 mi NNE 4.6 mph - N/A   Clear
7:53 PM 64.0 °F - 53.1 °F 67% 30.06 in 10.0 mi ENE 6.9 mph - N/A   Clear
8:53 PM 62.1 °F - 53.1 °F 72% 30.08 in 10.0 mi NE 11.5 mph - N/A   Clear
9:53 PM 60.1 °F - 52.0 °F 75% 30.09 in 10.0 mi NE 10.4 mph - N/A   Clear
10:53 PM 57.9 °F - 51.1 °F 78% 30.10 in 10.0 mi NE 9.2 mph - N/A   Clear
11:53 PM 55.9 °F - 48.9 °F 77% 30.10 in 10.0 mi ENE 5.8 mph - N/A   Clear